Sukkur Airport
OPSK : now visible

Airfield :











YOU CAN JOIN US ON...

 
LOGIN :

Register | Disclaimer

   EN    FR    IT 

 









Legend :    VFR   Marginal VFR   IFR   Intensive IFR   Very Intensive IFR
Visi :
Ceiling :
>= 8 km
>= 3000ft
5 to 8 km
1000 to 3000 ft
1500m to 5 km
500 to 1000 ft
800 to 1500m
200 to 500 ft
< 800m
< 200 ft
Symbols :   Thunderstorms  Fog  Heavy snow  Heavy precipitations  Wind > 20 kt






- Airport Elevation : 196 ft
- IATA code : SKZ


OPSK - Sukkur

CURRENT METAR :
  • 011800Z 00000KT 4000 HZ NSC 25/17 Q1011 NOSIG

EXPIRED METARs :
  • 011700Z 00000KT 4000 HZ NSC 25/17 Q1010 NOSIG
  • 011600Z 00000KT 4000 HZ NSC 26/17 Q1010 NOSIG

TAF TAF OPSK
Valid from the 01 at 18:00 until the 02 at 18:00 UTC


011530Z 0118/0218 36005KT 5000 HZ NSC
TEMPO 0200/0204 VRB03KT 3000 FU NSC
FM020600 18010KT 6000 NSC
FM021200 13008KT 6000 NSC



MET'MAP, your aeronautical weather chart ! - Copyright ORBIFLY December 2007 - Disclaimer

ORBIFLY MET'MAP TEAM :

Programming & Development : Alexandra Zaïnal
Concept & original design : Baudouin d'Aumeries
Assistance for programming : Marc-Olivier Méhu
Technical & hardware support : Manuel Goepfert

Contact : metmap@orbifly.com




SOURCES & CREDITS :

   NOAA       Earth
Advisory